Weather History for KCEY - July, 2013

Change the Weather History Date:

Saturday, July 20, 2013

  Actual Average (KPAH) Record (KPAH)
Temperature  
Mean Temperature 79 °F 79 °F  
Max Temperature 89 °F 89 °F 99 °F (1983)
Min Temperature 69 °F 69 °F 56 °F (1947)
Degree Days  
Heating Degree Days 0 0  
Month to date heating degree days 0  
Since 1 June heating degree days 4  
Since 1 July heating degree days 0  
Cooling Degree Days 14 14  
Month to date cooling degree days 280  
Year to date cooling degree days 772  
Since 1 June cooling degree days 600  
Growing Degree Days 29 (Base 50)    
Moisture  
Dew Point 71 °F    
Average Humidity 76    
Maximum Humidity 94    
Minimum Humidity 55    
Precipitation  
Precipitation 0.12 in 0.13 in 1.89 in (1975)
Month to date precipitation 2.95  
Year to date precipitation 28.23  
Snow  
Snow 0.00 in 0.00 in 0.00 in (2002)
Month to date snowfall 0.0  
Since 1 June snowfall 0.0  
Since 1 July snowfall 0.0  
Snow Depth -    
Sea Level Pressure  
Sea Level Pressure 29.95 in    
Wind  
Wind Speed 7 mph (SSW)    
Max Wind Speed 13 mph    
Max Gust Speed 26 mph    
Visibility 10 miles    
Events      
T = Trace of Precipitation, MM = Missing Value Source: NWS Daily Summary

Daily Weather History Graph

Daily Weather History Graph

Search for Another Location

Airport or City:

Trip Planner

Search our weather history database for the weather conditions in past years. The results will help you decide how hot, cold, wet, or windy it might be!

Date:

Astronomy

Jul. 20, 2013 Rise Set
Actual Time 5:50 AM CDT 8:09 PM CDT
Civil Twilight 5:20 AM CDT 8:38 PM CDT
Nautical Twilight 4:44 AM CDT 9:14 PM CDT
Astronomical Twilight 4:04 AM CDT 9:54 PM CDT
Moon 6:12 PM CDT (7/20) 3:29 AM CDT (7/20)
Length of Visible Light 15h 17m
Length of Day
14h 18m
Waxing Gibbous, 94% of the Moon is Illuminated
Jul 20
Waxing Gibbous
Jul 22
Full
Jul 29
Last Quarter
Aug 6
New
Aug 14
First Quarter

Hourly Weather History & Observations

Time (CDT) Temp. Heat Index Dew Point Humidity Pressure Visibility Wind Dir Wind Speed Gust Speed Precip Events Conditions
12:15 AM 75.2 °F - 69.8 °F 83% 29.99 in 10.0 mi SSW 5.8 mph - N/A   Unknown
12:35 AM 75.2 °F - 69.8 °F 83% 29.98 in 10.0 mi SSW 4.6 mph - N/A   Clear
12:55 AM 75.2 °F - 69.8 °F 83% 29.98 in 10.0 mi SSW 5.8 mph - N/A   Clear
1:15 AM 73.4 °F - 69.8 °F 88% 29.98 in 10.0 mi SSW 5.8 mph - N/A   Clear
1:35 AM 73.4 °F - 69.8 °F 88% 29.97 in 10.0 mi SSW 6.9 mph - N/A   Unknown
1:55 AM 73.4 °F - 71.6 °F 94% 29.97 in 10.0 mi South 6.9 mph - N/A   Clear
2:15 AM 73.4 °F - 71.6 °F 94% 29.97 in 10.0 mi SSW 6.9 mph - N/A   Clear
2:35 AM 73.4 °F - 71.6 °F 94% 29.96 in 10.0 mi SSW 5.8 mph - N/A   Clear
2:55 AM 73.4 °F - 71.6 °F 94% 29.95 in 10.0 mi SSW 5.8 mph - N/A   Clear
3:15 AM 73.4 °F - 71.6 °F 94% 29.95 in 10.0 mi South 5.8 mph - N/A   Clear
3:35 AM 73.4 °F - 71.6 °F 94% 29.95 in 10.0 mi SSW 5.8 mph - N/A   Clear
3:55 AM 73.4 °F - 71.6 °F 94% 29.95 in 10.0 mi SSW 6.9 mph - N/A   Clear
4:15 AM 73.4 °F - 71.6 °F 94% 29.96 in 10.0 mi SSW 4.6 mph - N/A   Unknown
4:35 AM 73.4 °F - 71.6 °F 94% 29.96 in 10.0 mi SSW 6.9 mph - N/A   Unknown
4:55 AM 73.4 °F - 71.6 °F 94% 29.96 in 10.0 mi SSW 6.9 mph - N/A   Unknown
5:15 AM 73.4 °F - 71.6 °F 94% 29.97 in 10.0 mi SSW 5.8 mph - N/A   Unknown
5:35 AM 71.6 °F - 69.8 °F 94% 29.97 in 10.0 mi SW 5.8 mph - N/A   Unknown
5:55 AM 71.6 °F - 69.8 °F 94% 29.97 in 10.0 mi SSW 5.8 mph - N/A   Clear
6:15 AM 71.6 °F - 69.8 °F 94% 29.98 in 10.0 mi SW 5.8 mph - N/A   Clear
6:35 AM 73.4 °F - 71.6 °F 94% 29.98 in 9.0 mi SSW 5.8 mph - N/A   Clear
6:55 AM 73.4 °F - 71.6 °F 94% 29.98 in 10.0 mi SW 6.9 mph - N/A   Clear
7:15 AM 75.2 °F - 71.6 °F 89% 29.98 in 10.0 mi SW 5.8 mph - N/A   Clear
7:35 AM 77.0 °F - 71.6 °F 83% 29.98 in 10.0 mi WSW 6.9 mph - N/A   Clear
7:55 AM 77.0 °F - 71.6 °F 83% 29.98 in 10.0 mi SW 6.9 mph - N/A   Clear
8:15 AM 78.8 °F - 71.6 °F 78% 29.97 in 10.0 mi SW 8.1 mph - N/A   Clear
8:35 AM 80.6 °F 84.6 °F 71.6 °F 74% 29.98 in 10.0 mi SSW 8.1 mph - N/A   Clear
8:55 AM 80.6 °F 84.6 °F 71.6 °F 74% 29.97 in 10.0 mi WSW 9.2 mph - N/A   Clear
9:15 AM 82.4 °F 87.2 °F 71.6 °F 70% 29.97 in 10.0 mi SW 11.5 mph - N/A   Clear
9:35 AM 82.4 °F 87.2 °F 71.6 °F 70% 29.97 in 10.0 mi WSW 11.5 mph 16.1 mph N/A   Clear
9:55 AM 82.4 °F 87.2 °F 71.6 °F 70% 29.97 in 10.0 mi SW 11.5 mph 18.4 mph N/A   Partly Cloudy
10:15 AM 84.2 °F 89.6 °F 71.6 °F 66% 29.97 in 10.0 mi SW 10.4 mph 17.3 mph N/A   Mostly Cloudy
10:35 AM 84.2 °F 89.6 °F 71.6 °F 66% 29.97 in 10.0 mi SW 11.5 mph - N/A   Scattered Clouds
10:55 AM 84.2 °F 89.6 °F 71.6 °F 66% 29.98 in 10.0 mi WSW 11.5 mph 16.1 mph N/A   Mostly Cloudy
11:15 AM 84.2 °F 89.6 °F 71.6 °F 66% 29.97 in 10.0 mi WSW 9.2 mph - N/A   Scattered Clouds
11:35 AM 84.2 °F 89.6 °F 71.6 °F 66% 29.97 in 10.0 mi SW 10.4 mph 18.4 mph N/A   Scattered Clouds
11:55 AM 86.0 °F 91.8 °F 71.6 °F 62% 29.96 in 10.0 mi SSW 10.4 mph - N/A   Scattered Clouds
12:15 PM 86.0 °F 91.8 °F 71.6 °F 62% 29.96 in 10.0 mi SW 12.7 mph - N/A   Partly Cloudy
12:35 PM 86.0 °F 91.8 °F 71.6 °F 62% 29.96 in 10.0 mi SSW 12.7 mph 19.6 mph N/A   Partly Cloudy
12:55 PM 86.0 °F 91.8 °F 71.6 °F 62% 29.95 in 10.0 mi SW 10.4 mph - N/A   Scattered Clouds
1:15 PM 86.0 °F 91.8 °F 71.6 °F 62% 29.94 in 10.0 mi South 10.4 mph - N/A   Scattered Clouds
1:35 PM 86.0 °F 91.8 °F 71.6 °F 62% 29.94 in 10.0 mi SSW 11.5 mph 18.4 mph N/A   Scattered Clouds
1:55 PM 86.0 °F 93.4 °F 73.4 °F 66% 29.93 in 10.0 mi SW 8.1 mph - N/A   Scattered Clouds
2:15 PM 86.0 °F 91.8 °F 71.6 °F 62% 29.92 in 10.0 mi South 10.4 mph - N/A   Mostly Cloudy
2:35 PM 89.6 °F 96.2 °F 71.6 °F 55% 29.92 in 10.0 mi SW 10.4 mph - N/A   Partly Cloudy
2:55 PM 89.6 °F 96.2 °F 71.6 °F 55% 29.91 in 10.0 mi SW 10.4 mph - N/A   Clear
3:15 PM 89.6 °F 98.2 °F 73.4 °F 59% 29.90 in 10.0 mi SW 9.2 mph - N/A   Partly Cloudy
3:35 PM 87.8 °F 93.8 °F 71.6 °F 58% 29.89 in 10.0 mi SSW 11.5 mph - N/A   Partly Cloudy
3:55 PM 87.8 °F 93.8 °F 71.6 °F 58% 29.87 in 10.0 mi SSW 9.2 mph - N/A   Scattered Clouds
4:15 PM 87.8 °F 93.8 °F 71.6 °F 58% 29.86 in 10.0 mi South 10.4 mph - N/A   Scattered Clouds
4:35 PM 86.0 °F 91.8 °F 71.6 °F 62% 29.85 in 10.0 mi South 9.2 mph 17.3 mph N/A   Scattered Clouds
4:55 PM 86.0 °F 91.8 °F 71.6 °F 62% 29.86 in 10.0 mi SW 8.1 mph - N/A   Partly Cloudy
5:15 PM 87.8 °F 93.8 °F 71.6 °F 58% 29.86 in 10.0 mi SW 8.1 mph - N/A   Partly Cloudy
5:35 PM 87.8 °F 93.8 °F 71.6 °F 58% 29.87 in 10.0 mi SW 9.2 mph - N/A   Partly Cloudy
5:55 PM 87.8 °F 93.8 °F 71.6 °F 58% 29.88 in 10.0 mi SSW 8.1 mph - N/A   Partly Cloudy
6:15 PM 86.0 °F 91.8 °F 71.6 °F 62% 29.89 in 10.0 mi SW 8.1 mph - N/A   Scattered Clouds
6:35 PM 86.0 °F 91.8 °F 71.6 °F 62% 29.90 in 10.0 mi SSW 5.8 mph - N/A   Partly Cloudy
6:55 PM 84.2 °F 89.6 °F 71.6 °F 66% 29.91 in 10.0 mi SSW 4.6 mph - N/A   Clear
7:15 PM 82.4 °F 88.2 °F 73.4 °F 74% 29.90 in 10.0 mi South 3.5 mph - N/A   Partly Cloudy
7:35 PM 80.6 °F 85.4 °F 73.4 °F 79% 29.90 in 10.0 mi South 3.5 mph - N/A   Clear
7:55 PM 80.6 °F 85.4 °F 73.4 °F 79% 29.92 in 10.0 mi South 4.6 mph - N/A   Clear
8:15 PM 80.6 °F 85.4 °F 73.4 °F 79% 29.92 in 10.0 mi SSW 4.6 mph - N/A   Mostly Cloudy
8:35 PM 80.6 °F 84.6 °F 71.6 °F 74% 29.92 in 10.0 mi South 8.1 mph - N/A   Mostly Cloudy
8:55 PM 77.0 °F - 69.8 °F 78% 29.92 in 10.0 mi SSW 9.2 mph - N/A   Partly Cloudy
9:15 PM 77.0 °F - 68.0 °F 74% 29.93 in 10.0 mi SSW 5.8 mph - N/A   Clear
9:35 PM 77.0 °F - 68.0 °F 74% 29.94 in 10.0 mi South 5.8 mph - N/A   Unknown
9:55 PM 77.0 °F - 68.0 °F 74% 29.97 in 10.0 mi NE 9.2 mph - N/A   Mostly Cloudy
10:15 PM 75.2 °F - 68.0 °F 78% 29.97 in 10.0 mi NNE 10.4 mph - N/A   Overcast
10:35 PM 71.6 °F - 68.0 °F 88% 30.00 in 3.0 mi NW 5.8 mph 26.5 mph N/A   Overcast
10:55 PM 69.8 °F - 68.0 °F 94% 29.99 in 5.0 mi NE 6.9 mph - 0.11 in   Unknown
11:15 PM 69.8 °F - 68.0 °F 94% 29.97 in 8.0 mi NE 4.6 mph - 0.01 in   Overcast
11:35 PM 69.8 °F - 68.0 °F 94% 29.97 in 10.0 mi East 4.6 mph - 0.01 in   Mostly Cloudy
11:55 PM 69.8 °F - 68.0 °F 94% 29.96 in 10.0 mi East 5.8 mph - 0.01 in   Mostly Cloudy